Greenland, New Hampshire, United States (03840)
Lat: 43.04N, Lon: 70.83W
Wx Zone: NHZ014
Local Info
Past Weather Observations for Monday, April 21, 2014

NOTE: This archive is for the closest National Weather Service station to Greenland. Information may differ from the station used for current weather conditions.

Time Weather Temperature Dewpoint Humidity Pressure Winds Precip Visibility
23:58
Partly Cloudy
54°F / 12°C 28°F / -2°C 38% 29.77 in
(1008 mb)
SSW 4.6 mph
(SSW 7 kph)
- 10SM
22:58
Mostly Cloudy
55°F / 13°C 27°F / -3°C 33% 29.8 in
(1009 mb)
SW 8.1 mph
(SW 13 kph)
- 10SM
21:58
Overcast
55°F / 13°C 30°F / -1°C 38% 29.8 in
(1009 mb)
SW 8.1 mph
(SW 13 kph)
- 10SM
20:58
Overcast
55°F / 13°C 32°F / 0°C 41% 29.83 in
(1010 mb)
SSE 8.1 mph
(SSE 13 kph)
- 10SM
19:58
Mostly Cloudy
52°F / 11°C 34°F / 1°C 50% 29.83 in
(1010 mb)
S 8.1 mph
(S 13 kph)
- 10SM
18:58
Mostly Cloudy
52°F / 11°C 36°F / 2°C 54% 29.83 in
(1010 mb)
SSE 9.2 mph
(SSE 15 kph)
- 10SM
17:58
Mostly Cloudy
59°F / 15°C 32°F / 0°C 36% 29.86 in
(1011 mb)
SSE 9.2 mph
(SSE 15 kph)
- 10SM
15:58
Partly Cloudy
61°F / 16°C 32°F / 0°C 34% 29.89 in
(1012 mb)
SE 13.8 mph
(SE 22 kph)
- 10SM
14:58
Partly Cloudy
63°F / 17°C 32°F / 0°C 32% 29.92 in
(1013 mb)
SSE 16.1 mph
(SSE 26 kph)
- 10SM
13:58
Partly Cloudy
64°F / 18°C 32°F / 0°C 30% 29.95 in
(1014 mb)
SE 12.7 mph
(SE 20 kph)
- 10SM
12:58
Partly Cloudy
63°F / 17°C 32°F / 0°C 32% 29.98 in
(1015 mb)
SE 9.2 mph
(SE 15 kph)
- 10SM
11:58
Mostly Cloudy
61°F / 16°C 32°F / 0°C 34% 30.04 in
(1017 mb)
SE 10.4 mph
(SE 17 kph)
- 10SM
10:58
Mostly Cloudy
61°F / 16°C 21°F / -6°C 22% 30.06 in
(1018 mb)
S 12.7 mph
(S 20 kph)
- 10SM
09:58
Mostly Cloudy
61°F / 16°C 21°F / -6°C 22% 30.09 in
(1019 mb)
SW 12.7 mph
(SW 20 kph)
- 10SM
08:58
Mostly Cloudy
55°F / 13°C 25°F / -4°C 31% 30.12 in
(1020 mb)
SW 12.7 mph
(SW 20 kph)
- 10SM
07:58
Mostly Cloudy
48°F / 9°C 27°F / -3°C 43% 30.15 in
(1021 mb)
SSE 8.1 mph
(SSE 13 kph)
- 10SM
06:58
Mostly Cloudy
41°F / 5°C 32°F / 0°C 70% 30.18 in
(1022 mb)
SW 3.5 mph
(SW 6 kph)
- 10SM
05:58
Partly Cloudy
34°F / 1°C 34°F / 1°C 100% 30.21 in
(1023 mb)
SW 3.5 mph
(SW 6 kph)
- 10SM
04:58
Partly Cloudy
30°F / -1°C 30°F / -1°C 100% 30.21 in
(1023 mb)
SSE 2.3 mph
(SSE 4 kph)
- 10SM
03:58
Partly Cloudy
32°F / 0°C 32°F / 0°C 100% 30.21 in
(1023 mb)
SE 1.2 mph
(SE 2 kph)
- 10SM
02:58
Clear
34°F / 1°C 34°F / 1°C 100% 30.24 in
(1024 mb)
Calm - 10SM
01:58
Clear
34°F / 1°C 34°F / 1°C 100% 30.24 in
(1024 mb)
S 3.5 mph
(S 6 kph)
- 10SM
00:58
Clear
34°F / 1°C 32°F / 0°C 93% 30.27 in
(1025 mb)
S 3.5 mph
(S 6 kph)
- 10SM
Time Weather Temperature Dewpoint Humidity Pressure Winds Precip Visibility


Weather for websites

WeatherForYou.com, LLC is not responsible for any damages or problems caused by this service. Current weather conditions are obtained from the closest station including government and personal stations which may have varying degrees of accuracy. Weather forecasts are derived from the NOAA NDFD. Like all things, this site belongs to Jesus Christ... He just trusts me to maintain it. If you have any questions or comments email webmaster@weatherforyou.com

Copyright © 2014, WeatherForYou.com LLC. All rights reserved.